Yosemite National Park, California, United States (95389)
Lat: 37.54N, Lon: 119.84W
Wx Zone: CAZ093
Local Info
Past Weather Observations for Monday, December 15, 2014

NOTE: This archive is for the closest National Weather Service station to Yosemite National Park. Information may differ from the station used for current weather conditions.

Click here for Long-term Archive

Time Weather Temperature Dewpoint Humidity Pressure Winds Precip Visibility
23:53
Partly Cloudy
48°F / 9°C 45°F / 7°C 87% 29.98 in
(1015 mb)
SE 8.1 mph
(SE 13 kph)
- 10SM
22:53
Overcast
52°F / 11°C 45°F / 7°C 77% 29.98 in
(1015 mb)
SE 10.4 mph
(SE 17 kph)
- 10SM
21:53
Overcast
52°F / 11°C 46°F / 8°C 82% 29.98 in
(1015 mb)
SE 10.4 mph
(SE 17 kph)
0.00 in
(0.00 mm)
10SM
20:53
Overcast
52°F / 11°C 45°F / 7°C 77% 29.98 in
(1015 mb)
SE 17.3 mph
(SE 28 kph)
- 10SM
19:53
Overcast
52°F / 11°C 45°F / 7°C 77% 29.95 in
(1014 mb)
SE 17.3 mph
(SE 28 kph)
0.01 in
(0.25 mm)
10SM
18:53
Overcast
Light Rain
52°F / 11°C 45°F / 7°C 77% 29.95 in
(1014 mb)
ESE 15 mph
(ESE 24 kph)
0.02 in
(0.51 mm)
10SM
17:53
Overcast
Light Rain
52°F / 11°C 45°F / 7°C 77% 29.95 in
(1014 mb)
E 13.8 mph
(E 22 kph)
0.02 in
(0.51 mm)
7SM
16:53
Overcast
54°F / 12°C 45°F / 7°C 72% 29.95 in
(1014 mb)
E 4.6 mph
(E 7 kph)
0.01 in
(0.25 mm)
10SM
15:53
Overcast
54°F / 12°C 46°F / 8°C 77% 29.92 in
(1013 mb)
SE 8.1 mph
(SE 13 kph)
0.02 in
(0.51 mm)
10SM
14:53
Overcast
Fog And Mist
52°F / 11°C 48°F / 9°C 88% 29.92 in
(1013 mb)
Calm 0.01 in
(0.25 mm)
4SM
13:53
Overcast
Fog And Mist
52°F / 11°C 46°F / 8°C 82% 29.92 in
(1013 mb)
Calm 0.00 in
(0.00 mm)
5SM
12:53
Overcast
Light Rain
52°F / 11°C 46°F / 8°C 82% 29.92 in
(1013 mb)
S 3.5 mph
(S 6 kph)
0.00 in
(0.00 mm)
7SM
11:53
Overcast
Hazy
48°F / 9°C 45°F / 7°C 87% 29.95 in
(1014 mb)
ESE 6.9 mph
(ESE 11 kph)
0.04 in
(1.02 mm)
4SM
11:24
Overcast
Light Rain
48°F / 9°C 45°F / 7°C 87% 29.95 in
(1014 mb)
E 11.5 mph
(E 19 kph)
0.04 in
(1.02 mm)
3SM
11:16
Overcast
Light Rain
48°F / 9°C 45°F / 7°C 87% 29.98 in
(1015 mb)
SE 10.4 mph
(SE 17 kph)
0.04 in
(1.02 mm)
2 1/2SM
10:53
Overcast
Rain
46°F / 8°C 45°F / 7°C 93% 30.01 in
(1016 mb)
E 11.5 mph
(E 19 kph)
0.04 in
(1.02 mm)
1 1/2SM
10:51
Overcast
Light Rain
46°F / 8°C 45°F / 7°C 93% 30.01 in
(1016 mb)
ESE 9.2 mph
(ESE 15 kph)
0.04 in
(1.02 mm)
1 1/2SM
10:25
Overcast
Light Rain
46°F / 8°C 43°F / 6°C 87% 30.01 in
(1016 mb)
E 3.5 mph
(E 6 kph)
0.01 in
(0.25 mm)
2SM
09:53
Overcast
Light Rain
46°F / 8°C 43°F / 6°C 87% 30.01 in
(1016 mb)
Calm 0.01 in
(0.25 mm)
1 1/2SM
08:53
Overcast
Fog And Mist
46°F / 8°C 43°F / 6°C 87% 30.04 in
(1017 mb)
SW 5.8 mph
(SW 9 kph)
- 1 3/4SM
08:38
Overcast
Fog And Mist
46°F / 8°C 43°F / 6°C 87% 30.01 in
(1016 mb)
Calm - 1 1/2SM
08:13
Overcast
Fog And Mist
45°F / 7°C 43°F / 6°C 93% 30.01 in
(1016 mb)
SW 5.8 mph
(SW 9 kph)
- 1 1/2SM
07:53
Overcast
Fog And Mist
46°F / 8°C 43°F / 6°C 87% 30.01 in
(1016 mb)
SE 5.8 mph
(SE 9 kph)
- 2SM
07:48
Overcast
Fog And Mist
46°F / 8°C 43°F / 6°C 87% 30.01 in
(1016 mb)
ESE 6.9 mph
(ESE 11 kph)
- 1 3/4SM
07:14
Overcast
Fog And Mist
45°F / 7°C 43°F / 6°C 93% 30.01 in
(1016 mb)
SE 6.9 mph
(SE 11 kph)
- 2SM
06:53
Overcast
Fog And Mist
45°F / 7°C 43°F / 6°C 93% 30.01 in
(1016 mb)
ESE 5.8 mph
(ESE 9 kph)
- 1 3/4SM
06:42
Overcast
Fog And Mist
45°F / 7°C 43°F / 6°C 93% 30.01 in
(1016 mb)
ESE 5.8 mph
(ESE 9 kph)
- 1 3/4SM
06:21
Overcast
Fog And Mist
45°F / 7°C 43°F / 6°C 93% 29.98 in
(1015 mb)
SE 3.5 mph
(SE 6 kph)
- 1 3/4SM
06:17
Mostly Cloudy
Fog And Mist
45°F / 7°C 43°F / 6°C 93% 29.98 in
(1015 mb)
SSE 3.5 mph
(SSE 6 kph)
- 2SM
06:04
Mostly Cloudy
Fog And Mist
45°F / 7°C 43°F / 6°C 93% 29.98 in
(1015 mb)
SE 4.6 mph
(SE 7 kph)
- 2SM
05:53
Mostly Cloudy
Fog And Mist
45°F / 7°C 43°F / 6°C 93% 30.01 in
(1016 mb)
SE 4.6 mph
(SE 7 kph)
- 1 3/4SM
05:46
Mostly Cloudy
Fog And Mist
45°F / 7°C 43°F / 6°C 93% 30.01 in
(1016 mb)
SSE 4.6 mph
(SSE 7 kph)
- 1 1/2SM
05:33
Overcast
Fog And Mist
45°F / 7°C 43°F / 6°C 93% 30.01 in
(1016 mb)
SW 4.6 mph
(SW 7 kph)
- 3/4SM
05:12
Overcast
Fog And Mist
45°F / 7°C 43°F / 6°C 93% 29.98 in
(1015 mb)
SW 3.5 mph
(SW 6 kph)
- 1 1/4SM
05:05
Overcast
Fog And Mist
45°F / 7°C 43°F / 6°C 93% 29.98 in
(1015 mb)
SW 4.6 mph
(SW 7 kph)
- 3/4SM
04:53
Mostly Cloudy
Fog And Mist
45°F / 7°C 43°F / 6°C 93% 29.98 in
(1015 mb)
S 4.6 mph
(S 7 kph)
- 1SM
04:49
Mostly Cloudy
Fog And Mist
45°F / 7°C 43°F / 6°C 93% 29.98 in
(1015 mb)
S 4.6 mph
(S 7 kph)
- 1 1/4SM
04:01
Partly Cloudy
Fog And Mist
45°F / 7°C 43°F / 6°C 93% 30.01 in
(1016 mb)
Calm - 1 3/4SM
03:53
Clear
Fog And Mist
45°F / 7°C 43°F / 6°C 93% 30.01 in
(1016 mb)
Calm - 1 3/4SM
03:42
Partly Cloudy
Fog And Mist
45°F / 7°C 43°F / 6°C 93% 30.01 in
(1016 mb)
S 3.5 mph
(S 6 kph)
- 1 3/4SM
02:53
Overcast
Fog And Mist
45°F / 7°C 43°F / 6°C 93% 30.01 in
(1016 mb)
SSE 3.5 mph
(SSE 6 kph)
- 1SM
02:18
Overcast
Fog And Mist
45°F / 7°C 43°F / 6°C 93% 30.01 in
(1016 mb)
SE 6.9 mph
(SE 11 kph)
- 1 1/4SM
02:09
Overcast
Fog And Mist
45°F / 7°C 45°F / 7°C 100% 30.01 in
(1016 mb)
SSE 8.1 mph
(SSE 13 kph)
- 3/4SM
01:53
Overcast
Fog And Mist
45°F / 7°C 45°F / 7°C 100% 30.01 in
(1016 mb)
SSE 8.1 mph
(SSE 13 kph)
- 1SM
01:38
Obscured
Fog
45°F / 7°C 45°F / 7°C 100% 30.01 in
(1016 mb)
SE 9.2 mph
(SE 15 kph)
- 1/2SM
00:53
Obscured
Fog
45°F / 7°C 43°F / 6°C 93% 30.04 in
(1017 mb)
SE 10.4 mph
(SE 17 kph)
- 1/4SM
00:21
Obscured
Fog
45°F / 7°C 43°F / 6°C 93% 30.04 in
(1017 mb)
SSE 8.1 mph
(SSE 13 kph)
- 1/4SM
00:11
Mostly Cloudy
Fog And Mist
45°F / 7°C 43°F / 6°C 93% 30.04 in
(1017 mb)
SE 9.2 mph
(SE 15 kph)
- 1 1/2SM
00:02
Obscured
Fog
45°F / 7°C 43°F / 6°C 93% 30.04 in
(1017 mb)
SE 6.9 mph
(SE 11 kph)
- 1/2SM
Time Weather Temperature Dewpoint Humidity Pressure Winds Precip Visibility


Weather for websites

WeatherForYou.com, LLC is not responsible for any damages or problems caused by this service. Current weather conditions are obtained from the closest station including government and personal stations which may have varying degrees of accuracy. Weather forecasts are derived from the NOAA NDFD. Like all things, this site belongs to Jesus Christ... He just trusts me to maintain it. If you have any questions or comments email webmaster@weatherforyou.com

Copyright © 2014, WeatherForYou.com LLC. All rights reserved.